Preview of NWS' New Version of Forecast
This preview is not operational and should not be used for support decisions.
Latest weather observations around

Bedford, Hanscom Field (KBED)

Using International System of Units (Switch to English Units)
Date/ Time (EDT) Wind (kph) Vis. (km) Weather Sky Cond. Temp (°C) Rel. Humidity Wind Chill (°C) Heat Index (°C) Pressure Precip. (cm)
Air Dwpt 6 hour Altimeter (hPa) Sea level (hPa) 1 hr 3 hr 6 hr
Max Min
Mar 19 05:56 WSW 8 16.09 Mostly Cloudy BKN080 -6 -10     71% -9   1026.4 1028.1      
Mar 19 04:56 WSW 5 16.09 Clear CLR -4 -9     68% -7   1026.1 1027.6      
Mar 19 03:56 WSW 9 16.09 Mostly Cloudy BKN090 -5 -10     68% -9   1025.7 1027.4      
Mar 19 02:56 NNW 5 16.09 Clear CLR -6 -9     78% -8   1026.1 1027.6      
Mar 19 01:56 Calm 16.09 Clear CLR -5 -9     71%     1026.1 1027.7      
Mar 19 00:56 Calm 16.09 Clear CLR -4 -11     60%     1025.7 1027.3      
Mar 18 23:56 Calm 16.09 Clear CLR -3 -11     57%     1025.7 1027.3      
Mar 18 22:56 Calm 16.09 Clear CLR -3 -11     55%     1025.7 1027.5      
Mar 18 21:56 Calm 16.09 Clear CLR -2 -9     58%     1025.7 1027.3      
Mar 18 20:56 Calm 16.09 Clear CLR -1 -12     41%     1025.1 1026.7      
Mar 18 19:56 W 8 16.09 Clear CLR 2 -13     31% 0   1024.4 1026.1     0
Mar 18 18:56 WNW 17 16.09 Partly Cloudy SCT060 3 -13     29% -1   1023.7 1025.3      
Mar 18 17:56 W 15 16.09 Clear CLR 4 -14     25% 1   1023 1024.6      
Mar 18 16:56 W 21 16.09 Clear CLR 6 -14     22% 2   1022.4 1023.8 0 0  
Mar 18 15:56 NNW 18 16.09 Partly Cloudy SCT060 6 -14     22% 2   1022 1023.5      
Mar 18 14:56 NW 18 16.09 Clear CLR 6 -14     22% 2   1022.4 1023.7 0    
Mar 18 13:56 W 17 16.09 Partly Cloudy SCT065 4 -14     26% 0   1022.7 1024.4     0
Mar 18 12:56 NW 26 16.09 Partly Cloudy SCT060 4 -13     27% 0   1023.4 1024.9      
Mar 18 11:56 WNW 22 16.09 Partly Cloudy SCT060 3 -13     31% -2   1023.7 1025.1      
Mar 18 10:56 WNW 21 16.09 Partly Cloudy SCT048 2 -12     36% -3   1024.1 1025.4 0 0  
Mar 18 09:56 NNW 13 16.09 Light Rain SCT050 1 -11     43% -3   1023.7 1025.4 0    
Mar 18 08:56 WNW 15 16.09 Mostly Clear FEW140 0 -10     47% -4   1023.7 1025.1      
Mar 18 07:56 WSW 8 16.09 Mostly Clear FEW140 -3 -11     53% -6   1023.4 1024.8      
Mar 18 06:56 WSW 8 16.09 Mostly Clear FEW140 -4 -12     55% -8   1022.7 1024.5      
Mar 18 05:56 W 5 16.09 Clear CLR -4 -12     55% -7   1022.4 1024.1      
Mar 18 04:56 WSW 8 16.09 Clear CLR -4 -12     55% -8   1022 1023.5      
Mar 18 03:56 WSW 9 16.09 Clear CLR -4 -12     53% -8   1022 1023.5      
Mar 18 02:56 WSW 9 16.09 Clear CLR -3 -13     48% -7   1022 1023.5      
Mar 18 01:56 W 9 16.09 Clear CLR -3 -13     44% -6   1022.4 1023.8      
Mar 18 00:56 WNW 13 16.09 Clear CLR -2 -13     42% -6   1022 1023.5      
Mar 17 23:56 WNW 21 16.09 Clear CLR -2 -13     42% -7   1022 1023.4      
Mar 17 22:56 W 18 16.09 Clear CLR -1 -13     39% -6   1021.3 1022.9      
Mar 17 21:56 WNW 8 16.09 Clear CLR -1 -12     41% -3   1021 1022.4      
Mar 17 20:56 W 9 16.09 Clear CLR 1 -13     36% -2   1020.3 1022      
Mar 17 19:56 W 18 16.09 Partly Cloudy SCT065 1 -13     35% -4   1019.7 1021.1     0
Mar 17 18:56 W 13 16.09 Clear CLR 2 -13     32% -1   1019 1020.4      
Mar 17 17:56 W 15 16.09 Mostly Clear FEW060 3 -12     31% 0   1018 1019.6      
Mar 17 16:56 WNW 18 16.09 Partly Cloudy SCT060 4 -12     31% 0   1018 1019.4   0  
Mar 17 15:56 W 26 16.09 Partly Cloudy SCT060 4 -11     31% 0   1018 1019.4      
Mar 17 14:56 WNW 21 16.09 Partly Cloudy SCT060 3 -12     32% -1   1018 1019.4 0    
Mar 17 13:56 WNW 22 16.09 Partly Cloudy SCT060 4 -11     34% -1   1018.3 1019.8 0   0
Mar 17 12:56 WNW 18 16.09 Partly Cloudy SCT060 3 -11     35% -1   1019 1020.4      
Mar 17 11:56 W 22 16.09 Partly Cloudy SCT065 4 -12     31% -1   1019 1020.5      
Mar 17 10:56 WNW 17 16.09 Partly Cloudy SCT060 3 -12     32% -1   1019.3 1020.8      
Mar 17 09:56 WNW 22 16.09 Partly Cloudy SCT060 2 -13     32% -3   1019.3 1020.9      
Mar 17 08:56 NW 24 16.09 Partly Cloudy SCT060 1 -14     33% -5   1019.3 1020.9      
Mar 17 07:56 NW 15 16.09 Partly Cloudy SCT060 -1 -13     39% -5   1019 1020.4      
Mar 17 06:56 NW 17 16.09 Partly Cloudy SCT050 -1 -13     41% -6   1018.3 1019.9      
Mar 17 05:56 WNW 21 16.09 Mostly Clear FEW055 -1 -12     41% -6   1017.6 1019.1      
Mar 17 04:56 W 17 16.09 Mostly Cloudy BKN055 0 -11     45% -5   1016.6 1018.1      
Mar 17 03:56 W 22 16.09 Clear CLR 1 -11     43% -5   1015.9 1017.5      
Mar 17 02:56 W 21 16.09 Clear CLR 1 -9     47% -5   1015.9 1017.5      
Mar 17 01:56 W 15 16.09 Mostly Clear FEW049 1 -9     49% -4   1015.9 1017.5      
Mar 17 00:56 W 13 16.09 Clear CLR 1 -9     47% -3   1015.9 1017.2      
Mar 16 23:56 W 17 16.09 Clear CLR 1 -9     47% -3   1015.9 1017.3      
Mar 16 22:56 W 21 16.09 Clear CLR 2 -9     44% -3   1015.6 1017.1      
Mar 16 21:56 W 17 16.09 Clear CLR 2 -9     42% -2   1015.6 1016.9      
Mar 16 20:56 W 17 16.09 Partly Cloudy SCT060 3 -9     40% -1   1014.9 1016.4      
Mar 16 19:56 W 21 16.09 Cloudy OVC060 4 -9     39% 0   1014.2 1015.5      
Mar 16 18:56 W 33 16.09 Mostly Cloudy and Windy BKN060 4 -9     39% -2   1013.2 1014.8      
Mar 16 17:56 W 39 16.09 Partly Cloudy and Windy SCT055 5 -8     38% -1   1012.5 1013.8      
Mar 16 16:56   16.09 Partly Cloudy SCT060 6 -7     38%     1011.5 1013      
Mar 16 15:56 W 35 16.09 Partly Cloudy and Windy SCT060 7 -6     38% 3   1010.8 1012.2      
Mar 16 14:56 W 30 16.09 Mostly Clear FEW060 7 -6     38% 3   1010.2 1011.6      
Mar 16 13:56 WNW 24 16.09 Mostly Cloudy BKN060 8 -5     39% 5   1009.8 1011.2      
Mar 16 12:56 W 41 16.09 Partly Cloudy and Windy SCT060 9 -4     40% 4   1009.8 1011      
Mar 16 11:56 WNW 35 16.09 Partly Cloudy and Windy SCT055 9 -3     42% 5   1009.5 1010.7      
Mar 16 10:56 W 39 16.09 Mostly Clear and Windy FEW055 9 -4     40% 5   1008.5 1009.9      
Mar 16 09:56 W 28 16.09 Mostly Cloudy BKN055 8 -3     46% 5   1008.1 1009.5      
Mar 16 08:56 W 22 16.09 Partly Cloudy SCT050 8 -2     48% 5   1007.8 1009.2      
Mar 16 07:56 W 22 16.09 Partly Cloudy SCT100 7 -2     51% 4   1007.8 1009      
Mar 16 06:56 W 17 16.09 Partly Cloudy SCT100 6 -2     55% 3   1007.5 1008.6      
May 14 11:56 11 16.09 Cloudy OVC027 17 11     67%     1014.9 1016.1      
May 14 05:56 Calm 16.09 Clear   10 8     89%     1015.9 1017.2      
May 13 01:34 NNW 8 12.87 Mostly Cloudy BKN006 8 7     96% 7   1020        
May 12 16:56 NNW 8 4.83 Light Rain and Fog/Mist OVC005 9 8     96% 8   1019.7 1021.1 0 0  
Jun 11 22:56 SW 9 16.09 Clear CLR 26 16     56%   26 1012.9 1013.8      
Jun 11 12:56 WSW 13 16.09 Clear CLR 28 14     43%   28 1013.9 1014.8      
Jun 10 08:56 SW 9 16.09 Clear CLR 23 12     50%   22 1014.2 1015.3      
Jun 09 09:56 W 11 16.09 Partly Cloudy SCT150 21 7     39%     1003.7 1004.7      
Jun 09 03:56 Calm 16.09 Clear   13 8     74%     1006.1 1007.2      
Jun 08 11:56 8 16.09 Clear CLR 25 8     35%   24 1015.9 1016.9      
Jun 07 16:56 ESE 13 16.09 Mostly Clear FEW040 21 7     39%     1013.9 1015.1      
Jun 07 11:56 NE 15 16.09 Clear CLR 19 10     56%     1014.2 1015.6      
Jun 06 08:48 NE 18 3.22 Fog/Mist OVC004 9 8     93% 7   1009.8   0    
Notice The following observation data may not be complete
Jun 06 08:03   2.82 Fog/Mist BKN010 OVC014          %         0    
Jun 06 05:56 NE 26 2.41 Fog/Mist OVC009 9 8     90% 6   1009.2 1010.5 0    
Notice The following observation data may not be complete
Jun 06 03:56   9.66 Light Rain and Fog/Mist OVC010          %         0    
Jun 05 14:56 ENE 17 2.01 Fog/Mist VV004 13 12     90%     1010.8 1011.9